Regional Weather Roundup
Issued by NWS Columbia, SC

Home | Current Version | Previous Version | Text Only | Print | Product List | Glossary On
Versions: 1 2 3 4 5 6 7 8 9 10 11 12 13 14 15 16 17 18 19 20 21 22 23 24 25 26 27 28 29 30 31 32 33 34 35 36 37 38 39 40 41 42 43 44 45 46 47 48 49 50
000
ASUS42 KCAE 271310
RWRCAE
REGIONAL WEATHER ROUNDUP
NATIONAL WEATHER SERVICE COLUMBIA SC
900 AM EDT MON APR 27 2015

NOTE: "FAIR" INDICATES FEW OR NO CLOUDS BELOW 12,000 FEET WITH NO
SIGNIFICANT WEATHER AND/OR OBSTRUCTIONS TO VISIBILITY.

NOT ALL STATIONS ARE QUALITY CONTROLLED BY THE NATIONAL
WEATHER SERVICE. USE DATA WITH CAUTION...ESPECIALLY
DEWPOINT OBSERVATIONS.

SCZ001>056-GAZ040-063>065-077-271400-
...UPSTATE SOUTH CAROLINA...

CITY           SKY/WX    TMP DP  RH WIND       PRES   REMARKS
ANDERSON       PTSUNNY   57  50  77 W6        29.88R
LIBERTY        SUNNY     58  52  81 W6        29.87R
SPARTANBURG    MOSUNNY   59  50  72 N6        29.85R
CLEMSON        SUNNY     59  49  69 W7        29.88R
GREENVILLE     MOSUNNY   57  49  74 W6        29.87R
GREENWOOD      PTSUNNY   57  50  77 NW3       29.88R
GREER          SUNNY     56  48  74 W7        29.85R
ROCK HILL      SUNNY     54  51  90 N5        29.85R
CHESTER        SUNNY     55  54  94 W5        29.86R
LAURENS        CLOUDY    55  54  94 CALM      29.86R


...CENTRAL SOUTH CAROLINA...

CITY           SKY/WX    TMP DP  RH WIND       PRES   REMARKS
COLUMBIA APT   MOSUNNY   58  47  66 MISG      29.86R
COLUMBIA OWENS SUNNY     58  47  66 N3        29.87R
DARLINGTON     SUNNY     54  46  76 NW8       29.85R
FLORENCE       SUNNY     56  48  74 N6        29.84R
MCENTIRE ANGB  MOSUNNY   57  47  69 NE3       29.86R
ORANGEBURG     CLOUDY    56  48  74 N5        29.86R
NEWBERRY       CLOUDY    54  50  87 CALM      29.89R
AIKEN          CLOUDY    54  46  76 N5        29.90R
BARNWELL       CLOUDY    55  52  88 N6        29.87R
MANNING        FAIR      54  37  54 N5        29.85R
CAMDEN         FAIR      55  46  71 N5        29.86R
LANCASTER      SUNNY     54  54 100 CALM      29.85S
WINNSBORO      SUNNY     54  50  87 CALM      29.86R


...EASTERN AND COASTAL SOUTH CAROLINA...

CITY           SKY/WX    TMP DP  RH WIND       PRES   REMARKS
MYRTLE BEACH   MOSUNNY   55  46  71 N12       29.83R
N MYRTLE BCH   SUNNY     56  48  74 VRB7      29.81R
CONWAY         FAIR      55  50  82 N3        29.83R
MARION         FAIR      55  48  76 N7        29.83R
HARTSVILLE     FAIR      54  46  76 CALM      29.85R
FLORENCE       SUNNY     56  48  74 N6        29.84R
DARLINGTON     SUNNY     54  46  76 NW8       29.85R
CHARLESTON APT PTSUNNY   56  49  77 N7        29.84R
MOUNT PLEASANT PTSUNNY   55  50  82 MISG      29.83R
WALTERBORO     CLOUDY    55  50  82 N6        29.85R
BEAUFORT       PTSUNNY   59  51  75 N6        29.83S


...EASTERN GEORGIA...

CITY           SKY/WX    TMP DP  RH WIND       PRES   REMARKS
AUGUSTA BUSH F CLOUDY    57  49  74 N7        29.87R
AUGUSTA DANIEL CLOUDY    57  49  74 NW6       29.87R
THOMSON        CLOUDY    58  54  85 CALM      29.92R
WASHINGTON     FAIR      61  57  88 CALM      29.88R
CLAXTON        CLOUDY    59  54  82 N8        29.85R
SYLVANIA       MOSUNNY   58  53  83 CALM      29.86R
STATESBORO       N/A     57  51  81 N6        29.85R
SAVANNAH       CLOUDY    59  53  80 N8        29.84R


...SOUTHERN NORTH CAROLINA...

CITY           SKY/WX    TMP DP  RH WIND       PRES   REMARKS
CHARLOTTE      MOSUNNY   53  48  83 NW7       29.85R
MONROE         SUNNY     52  49  89 NW6       29.84R
WADESBORO      SUNNY     51  50  97 NW3       29.84R
ROCKINGHAM     SUNNY     52  49  88 N3        29.84R
RUTHERFORDTON  SUNNY     53  48  84 CALM      29.87R
ASHEVILLE      SUNNY     51  38  60 N15       29.89R

$$



USA.gov is the U.S. government's official web portal to all federal, state and local government web resources and services.